Regional Weather Roundup
Issued by NWS

Home | Current Version | Previous Version | Text Only | Print | Product List | Glossary Off
Versions: 1 2 3 4 5 6 7 8 9 10 11 12 13 14 15 16 17 18 19 20 21 22 23 24 25 26 27 28 29 30 31 32 33 34 35 36 37 38 39 40 41 42 43 44 45 46 47 48 49 50

000
ASUS45 KTFX 262310
RWRMT
MONTANA REGIONAL WEATHER ROUNDUP
NATIONAL WEATHER SERVICE GREAT FALLS MT
500 PM MDT WED APR 26 2017

NOTE: "FAIR" INDICATES FEW OR NO CLOUDS BELOW 12000 FEET WITH NO
SIGNIFICANT WEATHER AND/OR OBSTRUCTIONS TO VISIBILITY.

MTZ001>007-043-270000-
WEST OF THE DIVIDE

CITY           SKY/WX    TMP DP  RH WIND       PRES   REMARKS
KALISPELL      LGT RAIN  45  42  89 S14       29.62F
MISSOULA       CLOUDY    51  35  54 CALM      29.65F
BUTTE          CLOUDY    41  31  67 VRB3      29.65F
MULLAN PASS    LGT SNOW  31  31 100 VRB6      29.65S FOG     WCI  25
ANACONDA         N/A     48  28  46 CALM      29.62F
DEER LODGE       N/A     45  36  70 NE3       29.66F
EUREKA           N/A     52  39  62 SE13      29.61F
HAMILTON         N/A     54  25  32 CALM      29.62F
LIBBY            N/A     50  39  66 W3        29.62F
$$

MTZ008-052>055-270000-
SOUTHWEST MONTANA

CITY           SKY/WX    TMP DP  RH WIND       PRES   REMARKS
BOZEMAN        CLOUDY    48  37  65 E7        29.63F
DILLON         CLOUDY    45  33  63 S10       29.63F
W YELLOWSTONE  CLOUDY    32  32 100 S6        29.70F WCI  26
THREE FORKS      N/A     40  40 100 W13       29.70R
$$

MTZ009-010-012-014-046-048-049-054-270000-
EAST SLOPES AND CENTRAL MONTANA

CITY           SKY/WX    TMP DP  RH WIND       PRES   REMARKS
CUT BANK       PTSUNNY   50  33  52 W8        29.58F
GREAT FALLS    CLOUDY    53  33  46 N8        29.58F
MALMSTROM AFB  MOSUNNY   51  36  55 CALM      29.58F
HELENA         CLOUDY    46  38  73 S7        29.62F
AUGUSTA        SHOWER    41  38  89 N14G30    29.60S
BOWMANS CRNR   PTSUNNY   48  33  55 E7        29.56F
CHOTEAU          N/A     52  34  50 VRB5      29.60S
FAIRFIELD      RAIN      45  36  72 SW7       29.59R
POWER          PTSUNNY   49  35  57 S7        29.57F
RAYNESFORD     LGT RAIN  48  34  59 E7        29.60R
ULM            LGT RAIN  48  40  74 S13       29.59S
$$

MTZ011-013-016-021-045-047-050-051-270000-
NORTH CENTRAL MONTANA

CITY           SKY/WX    TMP DP  RH WIND       PRES   REMARKS
HAVRE          CLOUDY    51  37  58 S13       29.61F
LEWISTOWN      MOSUNNY   45  37  73 SE7       29.62F
CHINOOK          N/A     52  37  58 SE12      29.63S
DENTON         LGT RAIN  45  42  88 E7        29.59F
FORT BENTON      N/A     57  39  51 N5        29.60F
GEYSER         LGT RAIN  44  40  87 E12       29.61F
GRASS RANGE      N/A     46  39  78 SE10      29.60F
JUDITH GAP     RAIN      39  36  90 NW7       29.64R
STANFORD       LGT RAIN  41  40  94 NE12      29.62S
WINIFRED         N/A     45  40  81 SE12      29.62F
$$

MTZ017>020-022>027-061-062-270000-
NORTHEAST MONTANA

CITY           SKY/WX    TMP DP  RH WIND       PRES   REMARKS
GLASGOW        SUNNY     50  26  39 S12       29.71F
JORDAN           N/A     49  31  49 SE13      29.68F
SIDNEY         SUNNY     51  23  33 E8        29.76F
WOLF POINT     SUNNY     53  25  33 E7        29.73F
PLENTYWOOD       N/A     48  21  34 E9        29.78S
POPLAR           N/A     48  23  37 E9        29.75F
$$

MTZ028>42-056>058-270000-
SOUTHCENTRAL AND SOUTHEAST MONTANA

CITY           SKY/WX    TMP DP  RH WIND       PRES   REMARKS
BAKER          MOSUNNY   44  27  51 VRB6      29.74F
BILLINGS       PTSUNNY   49  36  61 SE5       29.64F
LIVINGSTON     CLOUDY    49  34  56 W17       29.63R
MILES CITY     MOSUNNY   48  30  49 E10       29.70F
BIG TIMBER     MOSUNNY   52  39  62 SW7       29.62F
LAUREL           N/A     52  37  56 NE3       29.65S
ROUNDUP          N/A     52  33  48 SE7       29.58F
$$

REGIONAL REPORTS...DAKOTAS

CITY           SKY/WX    TMP DP  RH WIND       PRES   REMARKS
WILLISTON      SUNNY     52  21  29 NE10      29.77F
MINOT          SUNNY     50  23  34 N15       29.77F
DICKINSON      SUNNY     46  19  34 NE13G20   29.72F
BEACH            N/A     46  23  39 E7        29.77F
TIOGA            N/A     46  16  29 E16       29.79F
WATFORD CITY     N/A     48  18  29 VRB7G16   29.76F
BISMARCK       CLOUDY    45  28  51 NE14      29.76S
GRAND FORKS    LGT SNOW  32  29  88 N17       29.77F FOG     WCI  21
FARGO          LGT SNOW  30  28  92 N17       29.72S VSB 3/4 WCI  18
BUFFALO SD       N/A     46  27  47 CALM      29.67F
RAPID CITY     SUNNY     38  28  67 N8        29.74F
$$

REGIONAL REPORTS...WYOMING/IDAHO/WASHINGTON

CITY           SKY/WX    TMP DP  RH WIND       PRES   REMARKS
GILLETTE       SUNNY     43  35  73 N7        29.68F
SHERIDAN       MOSUNNY   36  29  75 E3        29.69F
BUFFALO WY     CLOUDY    38  31  76 N6        29.68S
CODY           MOSUNNY   55  32  41 E8        29.62F
YELLOWSTONE LA   N/A     33  28  81 MISG      29.72F
IDAHO FALLS    LGT RAIN  44  40  85 SW15      29.72F
SALMON         CLOUDY    46  34  61 W3        29.67F
BOISE          PTSUNNY   51  42  71 CALM      29.73F
SPOKANE        CLOUDY    54  33  45 W25       29.65F
$$

REGIONAL REPORTS...ALBERTA

CITY           SKY/WX    TMP DP  RH WIND       PRES   REMARKS
EDMONTON       CLOUDY    36  28  75 E10       29.73F WCI  28
CALGARY        CLOUDY    37  32  81 E9        29.64S WCI  31
LETHBRIDGE     PTSUNNY   46  39  76 NE15      29.60F
MEDICINE HAT   CLOUDY    45  39  81 NE8       29.65F
CARDSTON         N/A     50  34  53 NW1         N/A
MILK RIVER       N/A     45  39  81 E10         N/A
ONEFOUR          N/A     50  36  57 SE3         N/A
$$

REGIONAL REPORTS...SASKATCHEWAN

CITY           SKY/WX    TMP DP  RH WIND       PRES   REMARKS
SWIFT CURRENT  CLOUDY    45  27  49 SE15G22   29.69F
REGINA         MOSUNNY   46  19  34 E15       29.82F
SASKATOON      CLOUDY    45  16  31 SE17G24   29.85F
CYPRESS HILLS    N/A     41  34  75 S9          N/A
VAL MARIE        N/A     48  28  46 S14         N/A
ROCKGLEN         N/A     46  23  39 SE13G18     N/A
ASSINIBOIA       N/A     36  34  93 E8          N/A  WCI  29
$$



USA.gov is the U.S. government's official web portal to all federal, state and local government web resources and services.